Location: Katowice
(50.2611°N, 19.0242°E)
Time: 12:39:51
(UTC+02:00)

Explorer 7 - Pass Details

Date: 27 August 2019
Orbit: 485 x 680 km, 50.3° (Epoch: 20 October)

Event Time Altitude Azimuth Distance (km) Brightness Sun altitude
Rises 08:32:36 0° 220° (SW) 3,022 10.4 24.7°
Reaches altitude 10° 08:35:08 10° 211° (SSW) 2,103 9.7 25.1°
Maximum altitude 08:39:31 34° 147° (SSE) 1,090 9.4 25.8°
Drops below altitude 10° 08:43:47 10° 83° (E) 2,047 11.0 26.5°
Sets 08:46:14 0° 74° (ENE) 2,930 11.4 26.8°
